Tracking 32941 objects as of 15-Jan-2026
HD Live streaming from Space Station
objects crossing your sky now

SL-19 DEB

Track SL-19 DEB now!
10-day predictions


NORAD ID: 23479
Int'l Code: 1994-085C
Perigee: 1,863.2 km
Apogee: 2,022.8 km
Inclination: 65.0 °
Period: 125.7 minutes
Semi major axis: 8313 km
RCS: 0.2064 m2 (medium)
Launch date: December 26, 1994
Source: Commonwealth of Independent States (former USSR) (CIS)
Launch site: TYURATAM MISSILE AND SPACE COMPLEX (TTMTR)

Note: This is SATELLITE DEBRIS
Your satellite tracking list
Your tracking list is empty




NASA's NSSDC Master Catalog

Two Line Element Set (TLE):
1 23479U 94085C   26014.56734080  .00001548  00000-0  37491-1 0  9990
2 23479  65.0436 121.2272 0095988  25.6931  70.5071 11.45226622295628
Source of the keplerian elements: AFSPC